Retour au catalogue

STARLINK-5022

ActifCommunicationsVLEO
NORAD 53903·PAYLOAD·🇺🇸 United States

Lancé Sep 24, 2022 depuis Cape Canaveral Space Force Station

Loading…

Prochains Passages (prochaines 24 heures)

TLE

FraisSource: CelesTrak SupGP

Époque: Sep 14, 2026, 22:12 UTC

1 53903C 22119T   26257.92548611 -.00056860  00000+0 -18282-2 0  2579
2 53903  53.1583 185.7131 0001158  88.0065 166.4227 15.31735072    18

Suivez STARLINK-5022 en temps réel avec AllMySat

Download on the App Store